Regional Weather Roundup
Issued by NWS

Home | Current Version | Previous Version | Text Only | Print | Product List | Glossary On
Versions: 1 2 3 4 5 6 7 8 9 10 11 12 13 14 15 16 17 18 19 20 21 22 23 24 25 26 27 28 29 30 31 32 33 34 35 36 37 38 39 40 41 42 43 44 45 46 47 48 49 50
000
ASUS43 KDTX 260310
RWRMI
MICHIGAN HOURLY REGIONAL WEATHER ROUNDUP
NATIONAL WEATHER SERVICE DETROIT/PONTIAC MI
1000 PM EST THU DEC 25 2014

NOTE: "FAIR" INDICATES FEW OR NO CLOUDS BELOW 12,000 FEET WITH NO
SIGNIFICANT WEATHER AND/OR OBSTRUCTION TO VISIBILITY.

MIZ047>049-052>055-059>063-066>070-074>076-081>083-260400-
SOUTHEAST LOWER MICHIGAN

CITY           SKY/WX    TMP DP  RH WIND       PRES   REMARKS
ADRIAN         PTCLDY    33  29  85 SW8       30.12S WCI  26
ALMA           CLEAR     32  31  94 S10       30.04R WCI  24
ANN ARBOR      PTCLDY    32  29  88 SW7       30.11R WCI  26
BAD AXE        MOCLDY    33  30  88 SW8       30.05S WCI  26
CARO           PTCLDY    33  29  88 S8        30.04F WCI  25
DETROIT CITY   CLEAR     37  29  72 SW8       30.11F WCI  31
DETROIT        MOCLDY    33  30  88 S8        30.13R WCI  26
FLINT          PTCLDY    35  28  75 S10       30.08R WCI  27
GROSSE ILE     CLEAR     36  30  80 S9        30.12S WCI  29
HILLSDALE      MOCLDY    33  31  92 S6        30.08S WCI  28
HOWELL         PTCLDY    32  29  90 SW7       30.08R WCI  26

CITY           SKY/WX    TMP DP  RH WIND       PRES   REMARKS
JACKSON        MOCLDY    34  28  79 SW8       30.08R WCI  27
LAMBERTVILLE   PTCLDY    36  30  80 S6        30.14R WCI  31
LANSING        PTCLDY    34  29  82 S9        30.07R WCI  27
LAPEER         FAIR      33  29  86 SW8       30.07S WCI  26
MASON          MOCLDY    33  29  86 S3        30.07R
MONROE         PTCLDY    36  30  80 S5        30.12R WCI  32
MT. CLEMENS    MOCLDY    35  33  93 SW9       30.09F WCI  28
PONTIAC        PTCLDY    33  28  81 SW7       30.08S WCI  27
PORT HOPE        N/A     35  28  75 SW12G17   30.02R WCI  27
PORT HURON     PTCLDY    34  30  86 SW6       30.10F WCI  29
TRI CITIES     CLEAR     35  29  78 SW12      30.04S WCI  27
TROY           CLEAR     37  30  77 S7        30.11S WCI  31
SAGINAW HB     PTCLDY    34  32  93 S9        30.04S WCI  26
$$
MIZ043>046-050>051-056>058-064>065-071>073-077>080-260400-
SOUTHWEST LOWER MICHIGAN

CITY           SKY/WX    TMP DP  RH WIND       PRES   REMARKS
BATTLE CREEK   MOCLDY    35  29  78 S10       30.06F WCI  27
BENTON HARBOR  CLOUDY    37  31  78 S13       30.04S WCI  29
BIG RAPIDS     CLOUDY    35  32  90 S8        29.99R WCI  28
COLDWATER      PTCLDY    34  30  86 MISG      30.08F
FREMONT        FAIR      33  31  92 S6        30.00R WCI  28
HOLLAND        MOCLDY    37  31  78 S12       30.02F WCI  29
GRAND RAPIDS   MOCLDY    34  30  85 S12       30.03S WCI  25
IONIA          FAIR      34  31  88 SW12      30.04S WCI  26
KALAMAZOO      MOCLDY    35  30  82 S9        30.07S WCI  28
LUDINGTON      CLOUDY    39  36  87 S8        29.96F WCI  34
MARSHALL       PTCLDY    33  29  86 S8        30.07S WCI  26
MOUNT PLEASANT CLEAR     33  29  87 S5        30.01S WCI  28
MUSKEGON       MOCLDY    38  33  82 S10       30.00F WCI  31
SOUTH HAVEN    CLOUDY    38  32  80 S10       30.03F WCI  30
$$
MIZ016>042-260400-
NORTHERN LOWER MICHIGAN

CITY           SKY/WX    TMP DP  RH WIND       PRES   REMARKS
ALPENA         CLOUDY    35  29  78 SW8       29.98R WCI  29
BEAVER ISLAND  LGT RAIN  34  33  97 SW10G16   29.94R WCI  26
BELLAIRE       CLOUDY    37  32  83 S5        29.97R WCI  33
CADILLAC       CLOUDY    33  31  92 SW14      29.95S WCI  24
CHARLEVOIX     DRIZZLE   36  33  89 SW8       29.97S WCI  29
FRANKFORT      CLOUDY    38  35  88 S7        29.96R WCI  33
GAYLORD        CLOUDY    32  30  92 SW9       29.94R WCI  24
GRAYLING       CLOUDY    33  30  90 SW6       29.97R WCI  27
HARBOR SPRINGS CLOUDY    36  32  87 SW7       29.94S WCI  30
HOUGHTON LAKE  CLOUDY    34  29  82 SW9       29.98R WCI  27
MANISTEE       MOCLDY    36  28  75 SE5       29.98S WCI  32
OSCODA         CLOUDY    35  30  83 SW10G17   29.99F WCI  27
PELLSTON       LGT RAIN  36  32  85 SW7       29.94R WCI  30
ROGERS CITY    CLOUDY    35  32  88 SW6       29.97S WCI  30
TRAVERSE CITY  CLOUDY    37  31  78 S5        29.96R WCI  33
$$
MIZ007>008-015-260400-
EASTERN UPPER MICHIGAN

CITY           SKY/WX    TMP DP  RH WIND       PRES   REMARKS
KINROSS        CLOUDY    34  34 100 SW6       29.91R WCI  29
MACKINAC ISLAN CLOUDY    36  35  96 W9G16     29.93R WCI  29
NEWBERRY       CLOUDY    31  31  99 SW8       29.91R WCI  24
S. S. MARIE    CLOUDY    34  30  85 SW10      29.90R WCI  26
MUNISING         N/A     36  29  75 SW6       29.90R WCI  31
$$
MIZ004>006-011>014-085-260400-
CENTRAL UPPER MICHIGAN

CITY           SKY/WX    TMP DP  RH WIND       PRES   REMARKS
MANISTIQUE     FLURRIES  33  32  98 MISG      29.93R
ESCANABA       CLOUDY    32  30  93 SW3       29.92S
MENOMINEE      PTCLDY    34  28  80 SW5       29.92R WCI  30
SAWYER-GWINN   CLOUDY    32  30  93 SW7       29.88R WCI  26
$$
MIZ001>003-009>011-084-260400-
WESTERN UPPER MICHIGAN

CITY           SKY/WX    TMP DP  RH WIND       PRES   REMARKS
IRON MOUNTAIN  LGT SNOW  32  30  92 S3        29.89R FOG
HOUGHTON       CLOUDY    32  28  85 W8        29.84R WCI  25
COPPER HARBOR    N/A     34  30  85 W5        29.85S WCI  30
IRONWOOD       CLOUDY    30  30 100 CALM      29.85R
$$

ABBREVIATIONS USED IN REMARKS
   TC - TEMPERATURE IN CELSIUS
  WCI - WIND CHILL INDEX
   HX - HEAT INDEX
  VSB - VISIBILITY



USA.gov is the U.S. government's official web portal to all federal, state and local government web resources and services.